Location: Izdebno
(52.6670°N, 16.2170°E)
Time: 11:44:55
(UTC+02:00)

Vanguard 2 - Pass Details

Date: 02 February 2023
Orbit: 553 x 2927 km, 32.9° (Epoch: 26 March)

Event Time Altitude Azimuth Distance (km) Brightness Sun altitude
Rises 01:38:35 0° 258° (WSW) 6,464 - -50.2°
Reaches altitude 10° 01:43:16 10° 250° (WSW) 5,621 - -49.7°
Maximum altitude 01:57:51 34° 195° (SSW) 4,037 - -48.4°
Exits shadow 02:08:19 18° 147° (SSE) 4,725 11.3 -47.3°
Drops below altitude 10° 02:11:19 10° 138° (SE) 5,179 11.7 -46.9°
Sets 02:15:25 0° 130° (SE) 5,915 12.1 -46.5°
